COSMOS 2251 DEB, 36557

Orbit data source: Space-Track

COSMOS 2251 DEB, 36557 is space debris in LEO originally from a launch on Wed, 16 Jun 1993 UTC launched from the Plesetsk Missile And Space Complex (PKMTR). The debris from Iridium 33, an American commercial communications satellite, has been tracked extensively since its accidental collision with the defunct Russian satellite Cosmos 2251 in 2009. This event, occurring at high speed in low Earth orbit (LEO), generated thousands of pieces of space debris, significantly increasing the risk of further collisions. The Iridium 33 debris cloud has impacted space traffic management and orbital debris mitigation strategies, making it a subject of ongoing study in space situational awareness.

Loading next visibility...
Identifier
36557, 1993-036BDT
Orbit
LEO
Country
Flag of CISCIS
Related business
Manufacturer
Unknown
Mission
Spacecraft
Bus & Motor
Unknown
Mass
Unknown
Launch date (UTC)
1993-06-16 (33 years ago)
Launch vehicle
Unknown
Launch site
Plesetsk Missile And Space Complex (PKMTR)
Object type
Payload
Rocket body
Debris
Shape & HBR
Unknown shape, 0.1 m
Radar Cross Section
Small (<0.1 m²)

Expand to show TLE details & history
Last TLE update: 11 hours ago

TLE from 11 hours ago
0 COSMOS 2251 DEB
1 36557U 93036BDT 26145.32934200  .00008717  00000-0  10286-2 0  9990
2 36557  73.9785 161.8658 0022958 273.6299  86.2254 14.84660015363202
Epoch: 2026-05-25T07:54Z
TLE epoch observation values (Epoch: 2026-05-25T07:54:15.148Z)
Latitude
-0.00003°
Longitude
160.38398°
Altitude
616.299 km
Speed
7.552 km/s
True Right ascension
10h 47m 27s
True Declination
0° 00' 00"
Sunlit
Object was in daylight at epoch
Visualization orbit readout
Latitude
Unknown
Longitude
Unknown
Altitude
Unknown
Speed
Unknown
Apparent Right ascension
Unknown
Apparent Declination
Unknown
Sunlit
N/A
Visualization observer readout
Local Sidereal Time
04:08:36
Azimuth
Unknown
Elevation
Unknown
Doppler factor
Unknown
Orbital elements
Apogee altitude
628.277 km
Perigee altitude
596.18 km
Semi-major axis
6,990.366 km
Eccentricity
0.0023
Inclination
73.9785°
RAAN
161.8658°
Arg. of periapsis
273.6299°
True anomaly
86.48796°
Mean anomaly
86.2254°
Eccentric anomaly
86.35667°
Mean motion
3.71358 °/min
Orbital period
96.94 mins
BSTAR
0.0010286

Documentation

Showing up to 5 results
|